Location: Gesvres
(49.0440°N, 2.8518°E)
Time: 23:18:09
(UTC+00:00)

Cosmos 1553 Rocket - Pass Details

Date: 28 January 2023
Orbit: 942 x 1007 km, 82.9° (Epoch: 21 March)

Event Time Altitude Azimuth Distance (km) Brightness Sun altitude
Rises 18:53:37 0° 172° (S) 3,594 6.9 -22.0°
Reaches altitude 10° 18:56:08 10° 167° (SSE) 2,654 6.2 -22.4°
Maximum altitude 19:02:00 54° 92° (E) 1,136 3.9 -23.4°
Drops below altitude 10° 19:07:57 10° 17° (NNE) 2,694 6.1 -24.4°
Sets 19:10:31 0° 13° (NNE) 3,653 6.9 -24.8°
